Torna al catalogo

KUIPER-00158

AttivoComunicazioniLEO
NORAD 65776·PAYLOAD·🇺🇸 United States

Lanciato Sep 25, 2025 da Cape Canaveral Space Force Station

Loading…

Prossimi Passaggi (prossime 24 ore)

TLE

AggiornatoSource: Space-Track

Epoca: Sep 14, 2026, 02:22 UTC

1 65776U 25217Q   26257.09878382  .00002267  00000-0  31112-3 0  9993
2 65776  51.8968 290.3804 0000375 338.4613  21.6334 14.81989277 52775

Traccia KUIPER-00158 in tempo reale con AllMySat

Download on the App Store